Location: Lombard
(41.8800°N, 88.0080°W)
Time: 04:20:06
(UTC-05:00)

Gurwin Techsat 1B - Visible Passes

Search period start: 16 May 2022 00:00
Search period end: 26 May 2022 00:00
Orbit: 812 x 813 km, 98.8° (Epoch: 15 May)

Date Brightness Start Highest point End Pass type
(mag) Time Alt. Az. Time Alt. Az. Time Alt. Az.
16 May 9.2 03:03:35 10° NNE 03:08:47 53° E 03:11:34 26° SSE visible
16 May 10.1 04:44:23 10° NNW 04:48:18 21° WNW 04:52:13 10° WSW visible
17 May 9.9 02:40:59 10° NNE 02:45:45 33° E 02:48:24 21° SE visible
17 May 9.6 04:20:55 10° N 04:25:36 33° WNW 04:29:36 13° SW visible
18 May 10.6 02:18:43 10° NE 02:22:38 21° E 02:25:14 15° SE visible
18 May 8.9 03:57:40 10° N 04:02:49 51° WNW 04:06:26 19° SW visible
19 May 11.0 01:57:18 10° ENE 01:59:26 12° E 02:01:33 10° ESE visible
19 May 8.6 03:34:37 10° NNE 03:39:57 82° WNW 03:43:16 24° SSW visible
20 May 8.9 03:11:44 10° NNE 03:17:01 63° ESE 03:20:06 25° S visible
20 May 10.3 04:52:52 10° NNW 04:56:24 18° WNW 04:59:57 10° WSW visible
21 May 9.7 02:49:03 10° NNE 02:54:00 39° E 02:56:56 22° SSE visible
21 May 9.8 04:29:16 10° N 04:33:44 28° WNW 04:38:08 10° WSW visible
22 May 10.4 02:26:38 10° NE 02:30:54 24° E 02:33:45 16° SE visible
22 May 9.2 04:05:58 10° N 04:10:58 44° WNW 04:14:58 16° SW visible
23 May 10.9 02:04:47 10° ENE 02:07:44 15° E 02:10:35 10° ESE visible
23 May 8.6 03:42:50 10° N 03:48:08 70° WNW 03:51:47 20° SSW visible
24 May 8.7 03:19:53 10° NNE 03:25:14 74° ESE 03:28:36 23° S visible
25 May 9.4 02:57:08 10° NNE 03:02:14 46° E 03:05:25 22° SSE visible
25 May 10.0 04:37:40 10° NNW 04:41:51 24° WNW 04:46:02 10° WSW visible
